Skip Page Navigation
NASA JPL Caltech
NASA Logo - Jet Propulsion Laboratory + View the NASA Portal
+ Center for Near-Earth Object Studies
JPL Home Earth Solar System Stars & Galaxies Technology
JPL Solar System Dynamics
BODIES ORBITS EPHEMERIDES TOOLS PHYSICAL DATA DISCOVERY FAQ SITE MAP
IMPORTANT: The SSD Announcement email list is now available. Major changes are coming in the near future, including possible hostname and/or URL changes. To be notified of such changes, subscribe to this email list.

Please visit this page for more details.


JPL Small-Body Database Browser
Search: [ help ]  
30039 Jameier (2000 DE100)
Classification: Main-belt Asteroid          SPK-ID: 2030039
Ephemeris | Orbit Diagram | Orbital Elements | Mission Design | Physical Parameters | Discovery Circumstances ]

[ hide orbit diagram ]

For accurate long-term ephemerides, please instead use our Horizons system.This orbit viewer was implemented using two-body methods, and hence should not be used for determining accurate long-term trajectories (over several years or decades) or planetary encounter circumstances.


[ revert to old Java-based viewer ]

Orbital Elements at Epoch 2458600.5 (2019-Apr-27.0) TDB
Reference: JPL 12 (heliocentric ecliptic J2000)
 Element Value Uncertainty (1-sigma)   Units 
e .1367853456764726 6.0109e-08  
a 2.38864671140829 1.1653e-08 au
q 2.061914845289337 1.4515e-07 au
i 3.64801505347428 5.624e-06 deg
node 69.51767227644089 0.00010528 deg
peri 174.8010519198276 0.00010807 deg
M 358.6008580988359 2.705e-05 deg
tp 2458605.740655000480
(2019-May-02.24065500)
0.00010133 TDB
period 1348.423486283407
3.69
9.8676e-06
2.702e-08
d
yr
n .2669784408696783 1.9537e-09 deg/d
Q 2.715378577527242 1.3247e-08 au
  Orbit Determination Parameters
   # obs. used (total)      507  
   data-arc span      9058 days (24.80 yr)  
   first obs. used      1993-04-24  
   last obs. used      2018-02-10  
   planetary ephem.      DE431  
   SB-pert. ephem.      SB431-N16  
   condition code      0  
   norm. resid. RMS      .61509  
   source      ORB  
   producer      Otto Matic  
   solution date      2018-Oct-03 18:48:00  

Additional Information
 Earth MOID = 1.04855 au 
 Jupiter MOID = 2.2979 au 
 T_jup = 3.518 
[ show covariance matrix ]

Ephemeris | Orbit Diagram | Orbital Elements | Mission Design | Physical Parameters | Discovery Circumstances ]

Physical Parameter Table
Parameter Symbol Value Units Sigma Reference Notes
absolute magnitude H 16.3   n/a MPO279829  
diameter diameter 3.107 km 0.667 urn:nasa:pds:neowise_diameters_albedos::2.0[mainbelt] (http://adsabs.harvard.edu/abs/2011ApJ...741...68M)  
geometric albedo albedo 0.061   0.022 urn:nasa:pds:neowise_diameters_albedos::2.0[mainbelt] (http://adsabs.harvard.edu/abs/2011ApJ...741...68M)  

30039 Jameier           Discovered 2000 Feb. 29 by the Lincoln Laboratory Near-Earth Asteroid Research Team at Socorro.
Joshua Abraham Meier (b. 1995) is a finalist in the 2014 Intel Science Talent Search, a science competition for high school seniors, for his medicine and health project. He attends the Academy for the Advancement of Science and Technology, Hackensack, New Jersey.
NOTE: some special characters may not display properly (any characters within {} are an attempt to place the proper accent above a character)
Reference: MPC batch dated 2014-04-15Last Updated: 2014-04-17

Alternate Designations
 2000 DE100 = 1998 WO37 
Ephemeris | Orbit Diagram | Orbital Elements | Mission Design | Physical Parameters | Discovery Circumstances ]
ABOUT SSD CREDITS/AWARDS PRIVACY/COPYRIGHT GLOSSARY LINKS
FirstGov
(server date/time)  
NASA Home Page
Site Manager:   Ryan S. Park
Webmaster  Alan B. Chamberlin